Time,TemperatureF,DewpointF,PressureIn,WindDirection,WindDirectionDegrees,WindSpeedMPH,WindSpeedGustMPH,Humidity,HourlyPrecipIn,Conditions,Clouds,dailyrainin,SoftwareType,DateUTC
2013-06-09 00:01:00,56.0,54.3,30.16,NE,45,2.0,8.0,94,0.00,,,0.00,Weather View 32 v70,2013-06-09 04:01:00,
2013-06-09 00:02:00,56.0,54.6,30.16,NNE,22,0.0,8.0,95,0.00,,,0.00,Weather View 32 v70,2013-06-09 04:02:00,
2013-06-09 00:07:00,56.0,54.6,30.16,NE,45,1.0,8.0,95,0.00,,,0.00,Weather View 32 v70,2013-06-09 04:07:00,
2013-06-09 00:12:00,56.0,54.3,30.16,North,360,3.0,8.0,94,0.00,,,0.00,Weather View 32 v70,2013-06-09 04:12:00,
2013-06-09 00:17:00,56.0,54.3,30.16,NNE,22,3.0,6.0,94,0.00,,,0.00,Weather View 32 v70,2013-06-09 04:17:00,
2013-06-09 00:22:00,56.0,54.3,30.16,ENE,67,2.0,6.0,94,0.00,,,0.00,Weather View 32 v70,2013-06-09 04:22:00,
2013-06-09 00:27:00,56.0,54.3,30.17,NE,45,3.0,6.0,94,0.00,,,0.00,Weather View 32 v70,2013-06-09 04:27:00,
2013-06-09 00:32:00,55.0,53.3,30.16,NE,45,0.0,6.0,94,0.00,,,0.00,Weather View 32 v70,2013-06-09 04:32:00,
2013-06-09 00:37:00,55.0,53.3,30.17,NNE,22,2.0,6.0,94,0.00,,,0.00,Weather View 32 v70,2013-06-09 04:37:00,
2013-06-09 00:42:00,55.0,53.0,30.18,NE,45,7.0,10.0,93,0.00,,,0.00,Weather View 32 v70,2013-06-09 04:42:00,
2013-06-09 00:47:00,56.0,53.4,30.18,North,360,7.0,10.0,91,0.00,,,0.00,Weather View 32 v70,2013-06-09 04:47:00,
2013-06-09 00:52:00,55.0,52.4,30.18,NNW,337,2.0,10.0,91,0.00,,,0.00,Weather View 32 v70,2013-06-09 04:52:00,
2013-06-09 00:57:00,55.0,52.4,30.18,NNE,22,0.0,10.0,91,0.00,,,0.00,Weather View 32 v70,2013-06-09 04:57:00,
2013-06-09 01:02:00,56.0,53.4,30.18,NNE,22,0.0,10.0,91,0.00,,,0.00,Weather View 32 v70,2013-06-09 05:02:00,
2013-06-09 01:07:00,55.0,52.4,30.18,NE,45,2.0,10.0,91,0.00,,,0.00,Weather View 32 v70,2013-06-09 05:07:00,
2013-06-09 01:12:00,55.0,52.4,30.16,NNE,22,4.0,10.0,91,0.00,,,0.00,Weather View 32 v70,2013-06-09 05:12:00,
2013-06-09 01:17:00,55.0,52.4,30.16,NNE,22,3.0,10.0,91,0.00,,,0.00,Weather View 32 v70,2013-06-09 05:17:00,
2013-06-09 01:22:00,55.0,52.4,30.18,WSW,247,2.0,10.0,91,0.00,,,0.00,Weather View 32 v70,2013-06-09 05:22:00,
2013-06-09 01:27:00,55.0,52.4,30.19,NE,45,4.0,10.0,91,0.00,,,0.00,Weather View 32 v70,2013-06-09 05:27:00,
2013-06-09 01:32:00,55.0,52.7,30.18,NE,45,1.0,10.0,92,0.00,,,0.00,Weather View 32 v70,2013-06-09 05:32:00,
2013-06-09 01:37:00,55.0,52.7,30.18,NE,45,0.0,10.0,92,0.00,,,0.00,Weather View 32 v70,2013-06-09 05:37:00,
2013-06-09 01:42:00,55.0,52.7,30.18,NE,45,3.0,10.0,92,0.00,,,0.00,Weather View 32 v70,2013-06-09 05:42:00,
2013-06-09 01:47:00,55.0,52.7,30.18,NNW,337,5.0,10.0,92,0.00,,,0.00,Weather View 32 v70,2013-06-09 05:47:00,
2013-06-09 01:52:00,55.0,53.0,30.19,NNW,337,5.0,9.0,93,0.00,,,0.00,Weather View 32 v70,2013-06-09 05:52:00,
2013-06-09 01:57:00,55.0,53.0,30.19,NNE,22,3.0,7.0,93,0.00,,,0.00,Weather View 32 v70,2013-06-09 05:57:00,
2013-06-09 02:02:00,55.0,53.0,30.19,NNE,22,4.0,7.0,93,0.00,,,0.00,Weather View 32 v70,2013-06-09 06:02:00,
2013-06-09 02:07:00,54.0,52.0,30.19,ENE,67,4.0,7.0,93,0.00,,,0.00,Weather View 32 v70,2013-06-09 06:07:00,
2013-06-09 02:12:00,54.0,52.0,30.19,NE,45,3.0,7.0,93,0.00,,,0.00,Weather View 32 v70,2013-06-09 06:12:00,
2013-06-09 02:17:00,54.0,52.3,30.19,NNE,22,1.0,7.0,94,0.00,,,0.00,Weather View 32 v70,2013-06-09 06:17:00,
2013-06-09 02:22:00,54.0,52.0,30.19,NNE,22,4.0,7.0,93,0.00,,,0.00,Weather View 32 v70,2013-06-09 06:22:00,
2013-06-09 02:27:00,54.0,52.3,30.18,NE,45,1.0,7.0,94,0.00,,,0.00,Weather View 32 v70,2013-06-09 06:27:00,
2013-06-09 02:32:00,54.0,52.3,30.18,NNE,22,3.0,7.0,94,0.00,,,0.00,Weather View 32 v70,2013-06-09 06:32:00,
2013-06-09 02:37:00,53.0,51.3,30.18,NE,45,3.0,7.0,94,0.00,,,0.00,Weather View 32 v70,2013-06-09 06:37:00,
2013-06-09 02:42:00,53.0,51.6,30.18,ENE,67,4.0,7.0,95,0.00,,,0.00,Weather View 32 v70,2013-06-09 06:42:00,
2013-06-09 02:47:00,53.0,51.6,30.18,NNE,22,5.0,6.0,95,0.00,,,0.00,Weather View 32 v70,2013-06-09 06:47:00,
2013-06-09 02:52:00,53.0,51.6,30.18,NE,45,3.0,6.0,95,0.00,,,0.00,Weather View 32 v70,2013-06-09 06:52:00,
2013-06-09 02:57:00,53.0,51.6,30.18,NNE,22,0.0,6.0,95,0.00,,,0.00,Weather View 32 v70,2013-06-09 06:57:00,
2013-06-09 03:02:00,53.0,51.9,30.19,NNE,22,3.0,6.0,96,0.00,,,0.00,Weather View 32 v70,2013-06-09 07:02:00,
2013-06-09 03:07:00,53.0,51.6,30.18,NNE,22,2.0,6.0,95,0.00,,,0.00,Weather View 32 v70,2013-06-09 07:07:00,
2013-06-09 03:12:00,53.0,51.6,30.19,NE,45,3.0,6.0,95,0.00,,,0.00,Weather View 32 v70,2013-06-09 07:12:00,
2013-06-09 03:17:00,53.0,51.3,30.19,NNE,22,4.0,6.0,94,0.00,,,0.00,Weather View 32 v70,2013-06-09 07:17:00,
2013-06-09 03:22:00,53.0,51.3,30.19,NE,45,2.0,6.0,94,0.00,,,0.00,Weather View 32 v70,2013-06-09 07:22:00,
2013-06-09 03:27:00,53.0,51.0,30.19,NE,45,3.0,6.0,93,0.00,,,0.00,Weather View 32 v70,2013-06-09 07:27:00,
2013-06-09 03:32:00,53.0,51.0,30.18,ENE,67,3.0,6.0,93,0.00,,,0.00,Weather View 32 v70,2013-06-09 07:32:00,
2013-06-09 03:37:00,53.0,51.0,30.19,NNE,22,1.0,6.0,93,0.00,,,0.00,Weather View 32 v70,2013-06-09 07:37:00,
2013-06-09 03:42:00,53.0,51.0,30.18,ESE,112,2.0,6.0,93,0.00,,,0.00,Weather View 32 v70,2013-06-09 07:42:00,
2013-06-09 03:47:00,53.0,51.3,30.18,SE,135,1.0,6.0,94,0.00,,,0.00,Weather View 32 v70,2013-06-09 07:47:00,
2013-06-09 03:52:00,53.0,51.3,30.18,ENE,67,2.0,6.0,94,0.00,,,0.00,Weather View 32 v70,2013-06-09 07:52:00,
2013-06-09 03:57:00,52.0,50.3,30.18,North,360,0.0,6.0,94,0.00,,,0.00,Weather View 32 v70,2013-06-09 07:57:00,
2013-06-09 04:02:00,52.0,50.0,30.18,North,360,0.0,6.0,93,0.00,,,0.00,Weather View 32 v70,2013-06-09 08:02:00,
2013-06-09 04:07:00,52.0,50.3,30.18,North,360,0.0,6.0,94,0.00,,,0.00,Weather View 32 v70,2013-06-09 08:07:00,
2013-06-09 04:12:00,51.0,49.3,30.18,North,360,0.0,6.0,94,0.00,,,0.00,Weather View 32 v70,2013-06-09 08:12:00,
2013-06-09 04:17:00,51.0,49.6,30.18,ENE,67,1.0,6.0,95,0.00,,,0.00,Weather View 32 v70,2013-06-09 08:17:00,
2013-06-09 04:22:00,51.0,49.6,30.19,ENE,67,0.0,6.0,95,0.00,,,0.00,Weather View 32 v70,2013-06-09 08:22:00,
2013-06-09 04:28:00,52.0,50.6,30.19,NE,45,3.0,6.0,95,0.00,,,0.00,Weather View 32 v70,2013-06-09 08:28:00,
2013-06-09 04:33:00,51.0,49.9,30.20,NNW,337,2.0,5.0,96,0.00,,,0.00,Weather View 32 v70,2013-06-09 08:33:00,
2013-06-09 04:38:00,52.0,50.9,30.18,NW,315,2.0,5.0,96,0.00,,,0.00,Weather View 32 v70,2013-06-09 08:38:00,
2013-06-09 04:43:00,52.0,51.2,30.18,NW,315,0.0,5.0,97,0.00,,,0.00,Weather View 32 v70,2013-06-09 08:43:00,
2013-06-09 04:48:00,52.0,51.2,30.18,NW,315,0.0,5.0,97,0.00,,,0.00,Weather View 32 v70,2013-06-09 08:48:00,
2013-06-09 04:53:00,52.0,51.2,30.19,NW,315,0.0,4.0,97,0.00,,,0.00,Weather View 32 v70,2013-06-09 08:53:00,
2013-06-09 04:58:00,52.0,51.2,30.20,NW,315,0.0,4.0,97,0.00,,,0.00,Weather View 32 v70,2013-06-09 08:58:00,
2013-06-09 05:03:00,52.0,51.2,30.21,NNW,337,1.0,4.0,97,0.00,,,0.00,Weather View 32 v70,2013-06-09 09:03:00,
2013-06-09 05:08:00,52.0,51.2,30.21,NNW,337,0.0,4.0,97,0.00,,,0.00,Weather View 32 v70,2013-06-09 09:08:00,
2013-06-09 05:13:00,52.0,50.9,30.21,NE,45,1.0,4.0,96,0.00,,,0.00,Weather View 32 v70,2013-06-09 09:13:00,
2013-06-09 05:18:00,52.0,50.9,30.21,NE,45,1.0,4.0,96,0.00,,,0.00,Weather View 32 v70,2013-06-09 09:18:00,
2013-06-09 05:23:00,52.0,51.2,30.21,NE,45,3.0,4.0,97,0.00,,,0.00,Weather View 32 v70,2013-06-09 09:23:00,
2013-06-09 05:28:00,52.0,50.9,30.21,NE,45,2.0,4.0,96,0.00,,,0.00,Weather View 32 v70,2013-06-09 09:28:00,
2013-06-09 05:33:00,52.0,50.6,30.22,NE,45,2.0,4.0,95,0.00,,,0.00,Weather View 32 v70,2013-06-09 09:33:00,
2013-06-09 05:38:00,52.0,50.6,30.21,NE,45,1.0,4.0,95,0.00,,,0.00,Weather View 32 v70,2013-06-09 09:38:00,
2013-06-09 05:43:00,53.0,51.6,30.21,NE,45,0.0,4.0,95,0.00,,,0.00,Weather View 32 v70,2013-06-09 09:43:00,
2013-06-09 05:48:00,53.0,51.6,30.21,NE,45,0.0,4.0,95,0.00,,,0.00,Weather View 32 v70,2013-06-09 09:48:00,
2013-06-09 05:53:00,53.0,51.6,30.22,ENE,67,4.0,5.0,95,0.00,,,0.00,Weather View 32 v70,2013-06-09 09:53:00,
2013-06-09 05:58:00,53.0,51.0,30.22,ENE,67,0.0,5.0,93,0.00,,,0.00,Weather View 32 v70,2013-06-09 09:58:00,
2013-06-09 06:03:00,53.0,51.0,30.22,ESE,112,0.0,5.0,93,0.00,,,0.00,Weather View 32 v70,2013-06-09 10:03:00,
2013-06-09 06:08:00,54.0,52.0,30.22,NE,45,3.0,5.0,93,0.00,,,0.00,Weather View 32 v70,2013-06-09 10:08:00,
2013-06-09 06:13:00,54.0,52.0,30.24,North,360,0.0,5.0,93,0.00,,,0.00,Weather View 32 v70,2013-06-09 10:13:00,
2013-06-09 06:18:00,53.0,50.7,30.23,NNE,22,1.0,5.0,92,0.00,,,0.00,Weather View 32 v70,2013-06-09 10:18:00,
2013-06-09 06:23:00,54.0,51.7,30.24,NNE,22,0.0,5.0,92,0.00,,,0.00,Weather View 32 v70,2013-06-09 10:23:00,
2013-06-09 06:28:00,54.0,51.4,30.24,NE,45,1.0,6.0,91,0.00,,,0.00,Weather View 32 v70,2013-06-09 10:28:00,
2013-06-09 06:33:00,54.0,51.7,30.24,NNE,22,1.0,6.0,92,0.00,,,0.00,Weather View 32 v70,2013-06-09 10:33:00,
2013-06-09 06:38:00,54.0,50.8,30.24,NNW,337,1.0,6.0,89,0.00,,,0.00,Weather View 32 v70,2013-06-09 10:38:00,
2013-06-09 06:43:00,54.0,50.5,30.24,NNE,22,6.0,8.0,88,0.00,,,0.00,Weather View 32 v70,2013-06-09 10:43:00,
2013-06-09 06:48:00,54.0,50.5,30.24,NNE,22,0.0,8.0,88,0.00,,,0.00,Weather View 32 v70,2013-06-09 10:48:00,
2013-06-09 06:53:00,54.0,50.5,30.24,NE,45,1.0,8.0,88,0.00,,,0.00,Weather View 32 v70,2013-06-09 10:53:00,
2013-06-09 06:58:00,55.0,51.2,30.24,SE,135,5.0,8.0,87,0.00,,,0.00,Weather View 32 v70,2013-06-09 10:58:00,
2013-06-09 07:03:00,55.0,50.2,30.25,ESE,112,3.0,8.0,84,0.00,,,0.00,Weather View 32 v70,2013-06-09 11:03:00,
2013-06-09 07:08:00,55.0,49.9,30.27,SE,135,6.0,8.0,83,0.00,,,0.00,Weather View 32 v70,2013-06-09 11:08:00,
2013-06-09 07:13:00,54.0,49.3,30.26,South,180,2.0,8.0,84,0.00,,,0.00,Weather View 32 v70,2013-06-09 11:13:00,
2013-06-09 07:18:00,56.0,50.9,30.26,ESE,112,4.0,8.0,83,0.00,,,0.00,Weather View 32 v70,2013-06-09 11:18:00,
2013-06-09 07:23:00,56.0,50.2,30.27,SSE,157,5.0,8.0,81,0.00,,,0.00,Weather View 32 v70,2013-06-09 11:23:00,
2013-06-09 07:28:00,56.0,50.2,30.28,SSE,157,3.0,8.0,81,0.00,,,0.00,Weather View 32 v70,2013-06-09 11:28:00,
2013-06-09 07:33:00,56.0,50.2,30.28,NNE,22,1.0,8.0,81,0.00,,,0.00,Weather View 32 v70,2013-06-09 11:33:00,
2013-06-09 07:38:00,57.0,50.5,30.28,NNE,22,0.0,8.0,79,0.00,,,0.00,Weather View 32 v70,2013-06-09 11:38:00,
2013-06-09 07:43:00,58.0,50.8,30.28,NNE,22,7.0,7.0,77,0.00,,,0.00,Weather View 32 v70,2013-06-09 11:43:00,
2013-06-09 07:48:00,58.0,50.5,30.28,NNE,22,6.0,7.0,76,0.00,,,0.00,Weather View 32 v70,2013-06-09 11:48:00,
2013-06-09 07:53:00,57.0,49.5,30.28,WNW,292,6.0,7.0,76,0.00,,,0.00,Weather View 32 v70,2013-06-09 11:53:00,
2013-06-09 07:58:00,57.0,49.8,30.30,North,360,0.0,7.0,77,0.00,,,0.00,Weather View 32 v70,2013-06-09 11:58:00,
2013-06-09 08:03:00,58.0,50.5,30.30,NNW,337,4.0,7.0,76,0.00,,,0.00,Weather View 32 v70,2013-06-09 12:03:00,
2013-06-09 08:08:00,58.0,49.4,30.29,ESE,112,1.0,9.0,73,0.00,,,0.00,Weather View 32 v70,2013-06-09 12:08:00,
2013-06-09 08:13:00,57.0,48.4,30.29,NE,45,2.0,9.0,73,0.00,,,0.00,Weather View 32 v70,2013-06-09 12:13:00,
2013-06-09 08:18:00,59.0,49.2,30.30,WNW,292,4.0,9.0,70,0.00,,,0.00,Weather View 32 v70,2013-06-09 12:18:00,
2013-06-09 08:23:00,58.0,48.6,30.31,NW,315,5.0,9.0,71,0.00,,,0.00,Weather View 32 v70,2013-06-09 12:23:00,
2013-06-09 08:28:00,58.0,49.0,30.31,NW,315,7.0,9.0,72,0.00,,,0.00,Weather View 32 v70,2013-06-09 12:28:00,
2013-06-09 08:33:00,57.0,48.4,30.30,West,270,2.0,9.0,73,0.00,,,0.00,Weather View 32 v70,2013-06-09 12:33:00,
2013-06-09 08:38:00,58.0,48.6,30.30,NE,45,1.0,9.0,71,0.00,,,0.00,Weather View 32 v70,2013-06-09 12:38:00,
2013-06-09 08:43:00,56.0,47.8,30.30,WNW,292,8.0,9.0,74,0.00,,,0.00,Weather View 32 v70,2013-06-09 12:43:00,
2013-06-09 08:48:00,57.0,48.8,30.30,NE,45,3.0,9.0,74,0.00,,,0.00,Weather View 32 v70,2013-06-09 12:48:00,
2013-06-09 08:53:00,57.0,48.8,30.30,North,360,2.0,9.0,74,0.00,,,0.00,Weather View 32 v70,2013-06-09 12:53:00,
2013-06-09 08:58:00,57.0,48.8,30.30,North,360,1.0,9.0,74,0.00,,,0.00,Weather View 32 v70,2013-06-09 12:58:00,
2013-06-09 09:03:00,57.0,48.8,30.30,NE,45,3.0,9.0,74,0.00,,,0.00,Weather View 32 v70,2013-06-09 13:03:00,
2013-06-09 09:08:00,56.0,48.9,30.30,NW,315,2.0,9.0,77,0.00,,,0.00,Weather View 32 v70,2013-06-09 13:08:00,
2013-06-09 09:13:00,57.0,48.8,30.32,NW,315,6.0,9.0,74,0.00,,,0.00,Weather View 32 v70,2013-06-09 13:13:00,
2013-06-09 09:18:00,59.0,50.3,30.32,NNW,337,0.0,9.0,73,0.00,,,0.00,Weather View 32 v70,2013-06-09 13:18:00,
2013-06-09 09:23:00,61.0,50.7,30.32,NNW,337,3.0,9.0,69,0.00,,,0.00,Weather View 32 v70,2013-06-09 13:23:00,
2013-06-09 09:28:00,62.0,50.9,30.32,East,90,3.0,9.0,67,0.00,,,0.00,Weather View 32 v70,2013-06-09 13:28:00,
2013-06-09 09:33:00,60.0,49.8,30.32,WNW,292,0.0,9.0,69,0.00,,,0.00,Weather View 32 v70,2013-06-09 13:33:00,
2013-06-09 09:38:00,62.0,50.5,30.34,NW,315,0.0,9.0,66,0.00,,,0.00,Weather View 32 v70,2013-06-09 13:38:00,
2013-06-09 09:43:00,63.0,51.0,30.34,SE,135,4.0,9.0,65,0.00,,,0.00,Weather View 32 v70,2013-06-09 13:43:00,
2013-06-09 09:48:00,62.0,51.3,30.34,SSW,202,1.0,7.0,68,0.00,,,0.00,Weather View 32 v70,2013-06-09 13:48:00,
2013-06-09 09:53:00,60.0,50.2,30.35,South,180,4.0,7.0,70,0.00,,,0.00,Weather View 32 v70,2013-06-09 13:53:00,
2013-06-09 09:58:00,61.0,51.1,30.37,SSW,202,5.0,7.0,70,0.00,,,0.00,Weather View 32 v70,2013-06-09 13:58:00,
2013-06-09 10:03:00,58.0,49.7,30.36,SSE,157,4.0,7.0,74,0.00,,,0.00,Weather View 32 v70,2013-06-09 14:03:00,
2013-06-09 10:08:00,59.0,50.0,30.36,SSW,202,2.0,7.0,72,0.00,,,0.00,Weather View 32 v70,2013-06-09 14:08:00,
2013-06-09 10:13:00,62.0,51.3,30.36,SSE,157,8.0,8.0,68,0.00,,,0.00,Weather View 32 v70,2013-06-09 14:13:00,
2013-06-09 10:18:00,61.0,51.1,30.35,WSW,247,3.0,8.0,70,0.00,,,0.00,Weather View 32 v70,2013-06-09 14:18:00,
2013-06-09 10:23:00,60.0,50.9,30.34,SSW,202,7.0,9.0,72,0.00,,,0.00,Weather View 32 v70,2013-06-09 14:23:00,
2013-06-09 10:28:00,57.0,49.8,30.35,NNW,337,1.0,9.0,77,0.00,,,0.00,Weather View 32 v70,2013-06-09 14:28:00,
2013-06-09 10:33:00,58.0,50.5,30.35,SSW,202,7.0,9.0,76,0.00,,,0.00,Weather View 32 v70,2013-06-09 14:33:00,
2013-06-09 10:38:00,60.0,51.7,30.34,SSW,202,3.0,9.0,74,0.00,,,0.00,Weather View 32 v70,2013-06-09 14:38:00,
2013-06-09 10:43:00,57.0,50.2,30.31,SSW,202,5.0,9.0,78,0.00,,,0.00,Weather View 32 v70,2013-06-09 14:43:00,
2013-06-09 10:48:00,59.0,51.4,30.33,South,180,5.0,10.0,76,0.00,,,0.00,Weather View 32 v70,2013-06-09 14:48:00,
2013-06-09 10:53:00,60.0,52.8,30.32,SW,225,4.0,10.0,77,0.00,,,0.00,Weather View 32 v70,2013-06-09 14:53:00,
2013-06-09 10:58:00,59.0,52.1,30.32,South,180,6.0,10.0,78,0.00,,,0.00,Weather View 32 v70,2013-06-09 14:58:00,
2013-06-09 11:03:00,59.0,52.1,30.32,SSW,202,5.0,10.0,78,0.00,,,0.00,Weather View 32 v70,2013-06-09 15:03:00,
2013-06-09 11:08:00,60.0,52.4,30.32,WSW,247,2.0,10.0,76,0.00,,,0.00,Weather View 32 v70,2013-06-09 15:08:00,
2013-06-09 11:13:00,61.0,52.6,30.33,SSW,202,7.0,10.0,74,0.00,,,0.00,Weather View 32 v70,2013-06-09 15:13:00,
2013-06-09 11:18:00,61.0,53.0,30.34,SSW,202,6.0,10.0,75,0.00,,,0.00,Weather View 32 v70,2013-06-09 15:18:00,
2013-06-09 11:23:00,61.0,52.6,30.34,SW,225,6.0,10.0,74,0.00,,,0.00,Weather View 32 v70,2013-06-09 15:23:00,
2013-06-09 11:28:00,61.0,52.6,30.34,NNE,22,2.0,10.0,74,0.00,,,0.00,Weather View 32 v70,2013-06-09 15:28:00,
2013-06-09 11:33:00,62.0,53.2,30.34,SW,225,5.0,10.0,73,0.00,,,0.00,Weather View 32 v70,2013-06-09 15:33:00,
2013-06-09 11:38:00,62.0,53.2,30.34,SSW,202,4.0,10.0,73,0.00,,,0.00,Weather View 32 v70,2013-06-09 15:38:00,
2013-06-09 11:43:00,59.0,51.8,30.34,WNW,292,3.0,10.0,77,0.00,,,0.00,Weather View 32 v70,2013-06-09 15:43:00,
2013-06-09 11:48:00,59.0,52.1,30.33,SSW,202,4.0,10.0,78,0.00,,,0.00,Weather View 32 v70,2013-06-09 15:48:00,
2013-06-09 11:53:00,57.0,50.9,30.33,SSW,202,7.0,10.0,80,0.00,,,0.00,Weather View 32 v70,2013-06-09 15:53:00,
2013-06-09 11:58:00,61.0,52.6,30.33,SSE,157,2.0,10.0,74,0.00,,,0.00,Weather View 32 v70,2013-06-09 15:58:00,
2013-06-09 12:03:00,61.0,52.6,30.34,SE,135,2.0,10.0,74,0.00,,,0.00,Weather View 32 v70,2013-06-09 16:03:00,
2013-06-09 12:08:00,61.0,53.4,30.32,SW,225,8.0,10.0,76,0.00,,,0.00,Weather View 32 v70,2013-06-09 16:08:00,
2013-06-09 12:13:00,59.0,52.8,30.32,SSW,202,6.0,12.0,80,0.00,,,0.00,Weather View 32 v70,2013-06-09 16:13:00,
2013-06-09 12:18:00,60.0,53.5,30.32,WSW,247,4.0,12.0,79,0.00,,,0.00,Weather View 32 v70,2013-06-09 16:18:00,
2013-06-09 12:23:00,61.0,53.7,30.32,South,180,5.0,12.0,77,0.00,,,0.00,Weather View 32 v70,2013-06-09 16:23:00,
2013-06-09 12:28:00,61.0,53.4,30.32,SW,225,5.0,12.0,76,0.00,,,0.00,Weather View 32 v70,2013-06-09 16:28:00,
2013-06-09 12:33:00,62.0,53.6,30.32,SSW,202,6.0,12.0,74,0.00,,,0.00,Weather View 32 v70,2013-06-09 16:33:00,
2013-06-09 12:38:00,61.0,53.4,30.32,SW,225,12.0,15.0,76,0.00,,,0.00,Weather View 32 v70,2013-06-09 16:38:00,
2013-06-09 12:43:00,61.0,53.7,30.32,SSW,202,11.0,15.0,77,0.00,,,0.00,Weather View 32 v70,2013-06-09 16:43:00,
2013-06-09 12:48:00,61.0,53.7,30.32,South,180,9.0,15.0,77,0.00,,,0.00,Weather View 32 v70,2013-06-09 16:48:00,
2013-06-09 12:53:00,61.0,53.0,30.32,SSW,202,8.0,16.0,75,0.00,,,0.00,Weather View 32 v70,2013-06-09 16:53:00,
2013-06-09 12:58:00,62.0,54.0,30.32,SW,225,11.0,16.0,75,0.00,,,0.00,Weather View 32 v70,2013-06-09 16:58:00,
2013-06-09 13:03:00,62.0,54.3,30.32,SSE,157,4.0,16.0,76,0.00,,,0.00,Weather View 32 v70,2013-06-09 17:03:00,
2013-06-09 13:08:00,62.0,54.0,30.32,South,180,9.0,16.0,75,0.00,,,0.00,Weather View 32 v70,2013-06-09 17:08:00,
2013-06-09 13:13:00,64.0,54.8,30.31,SSW,202,6.0,16.0,72,0.00,,,0.00,Weather View 32 v70,2013-06-09 17:13:00,
2013-06-09 13:18:00,62.0,53.6,30.32,SW,225,6.0,16.0,74,0.00,,,0.00,Weather View 32 v70,2013-06-09 17:18:00,
2013-06-09 13:23:00,63.0,54.6,30.32,SW,225,10.0,16.0,74,0.00,,,0.00,Weather View 32 v70,2013-06-09 17:23:00,
2013-06-09 13:28:00,64.0,54.4,30.32,SW,225,10.0,16.0,71,0.00,,,0.00,Weather View 32 v70,2013-06-09 17:28:00,
2013-06-09 13:33:00,63.0,54.6,30.32,SSW,202,10.0,16.0,74,0.00,,,0.00,Weather View 32 v70,2013-06-09 17:33:00,
2013-06-09 13:38:00,63.0,53.8,30.32,SW,225,7.0,16.0,72,0.00,,,0.00,Weather View 32 v70,2013-06-09 17:38:00,
2013-06-09 13:43:00,58.0,51.5,30.32,SW,225,9.0,17.0,79,0.00,,,0.00,Weather View 32 v70,2013-06-09 17:43:00,
2013-06-09 13:48:00,57.0,50.9,30.32,South,180,9.0,17.0,80,0.00,,,0.00,Weather View 32 v70,2013-06-09 17:48:00,
2013-06-09 13:53:00,59.0,51.8,30.32,South,180,8.0,17.0,77,0.00,,,0.00,Weather View 32 v70,2013-06-09 17:53:00,
2013-06-09 13:58:00,61.0,53.0,30.32,SSW,202,6.0,17.0,75,0.00,,,0.00,Weather View 32 v70,2013-06-09 17:58:00,
2013-06-09 14:03:00,63.0,54.2,30.31,SSW,202,9.0,17.0,73,0.00,,,0.00,Weather View 32 v70,2013-06-09 18:03:00,
2013-06-09 14:08:00,63.0,53.8,30.31,SW,225,14.0,17.0,72,0.00,,,0.00,Weather View 32 v70,2013-06-09 18:08:00,
2013-06-09 14:13:00,62.0,53.2,30.32,SSW,202,12.0,17.0,73,0.00,,,0.00,Weather View 32 v70,2013-06-09 18:13:00,
2013-06-09 14:18:00,61.0,53.0,30.32,SSW,202,10.0,17.0,75,0.00,,,0.00,Weather View 32 v70,2013-06-09 18:18:00,
2013-06-09 14:23:00,61.0,53.7,30.32,South,180,13.0,17.0,77,0.00,,,0.00,Weather View 32 v70,2013-06-09 18:23:00,
2013-06-09 14:28:00,61.0,54.4,30.31,SW,225,6.0,17.0,79,0.00,,,0.00,Weather View 32 v70,2013-06-09 18:28:00,
2013-06-09 14:33:00,60.0,54.1,30.30,WSW,247,2.0,17.0,81,0.00,,,0.00,Weather View 32 v70,2013-06-09 18:33:00,
2013-06-09 14:38:00,60.0,54.5,30.30,SSW,202,6.0,19.0,82,0.00,,,0.00,Weather View 32 v70,2013-06-09 18:38:00,
2013-06-09 14:43:00,60.0,54.5,30.30,SSW,202,15.0,19.0,82,0.00,,,0.00,Weather View 32 v70,2013-06-09 18:43:00,
2013-06-09 14:48:00,59.0,54.2,30.29,SSW,202,15.0,19.0,84,0.00,,,0.00,Weather View 32 v70,2013-06-09 18:48:00,
2013-06-09 14:53:00,59.0,54.5,30.28,South,180,6.0,19.0,85,0.00,,,0.00,Weather View 32 v70,2013-06-09 18:53:00,
2013-06-09 14:58:00,59.0,54.5,30.29,SW,225,13.0,19.0,85,0.00,,,0.00,Weather View 32 v70,2013-06-09 18:58:00,
2013-06-09 15:03:00,59.0,54.2,30.28,SW,225,12.0,19.0,84,0.00,,,0.00,Weather View 32 v70,2013-06-09 19:03:00,
2013-06-09 15:08:00,59.0,54.2,30.28,SW,225,6.0,19.0,84,0.00,,,0.00,Weather View 32 v70,2013-06-09 19:08:00,
2013-06-09 15:13:00,60.0,55.1,30.28,SSW,202,12.0,19.0,84,0.00,,,0.00,Weather View 32 v70,2013-06-09 19:13:00,
2013-06-09 15:18:00,60.0,55.1,30.28,SSW,202,10.0,19.0,84,0.00,,,0.00,Weather View 32 v70,2013-06-09 19:18:00,
2013-06-09 15:23:00,60.0,54.8,30.28,SSE,157,9.0,19.0,83,0.00,,,0.00,Weather View 32 v70,2013-06-09 19:23:00,
2013-06-09 15:28:00,61.0,55.5,30.28,South,180,8.0,19.0,82,0.00,,,0.00,Weather View 32 v70,2013-06-09 19:28:00,
2013-06-09 15:33:00,61.0,54.4,30.29,South,180,10.0,19.0,79,0.00,,,0.00,Weather View 32 v70,2013-06-09 19:33:00,
2013-06-09 15:38:00,61.0,54.8,30.29,SSW,202,10.0,18.0,80,0.00,,,0.00,Weather View 32 v70,2013-06-09 19:38:00,
2013-06-09 15:43:00,62.0,55.4,30.30,SSW,202,12.0,18.0,79,0.00,,,0.00,Weather View 32 v70,2013-06-09 19:43:00,
2013-06-09 15:48:00,63.0,56.0,30.30,SSW,202,9.0,17.0,78,0.00,,,0.00,Weather View 32 v70,2013-06-09 19:48:00,
2013-06-09 15:53:00,62.0,55.4,30.31,WSW,247,13.0,15.0,79,0.00,,,0.00,Weather View 32 v70,2013-06-09 19:53:00,
2013-06-09 15:58:00,61.0,54.8,30.31,South,180,8.0,15.0,80,0.00,,,0.00,Weather View 32 v70,2013-06-09 19:58:00,
2013-06-09 16:03:00,61.0,54.8,30.31,SSW,202,10.0,16.0,80,0.00,,,0.00,Weather View 32 v70,2013-06-09 20:03:00,
2013-06-09 16:08:00,62.0,55.0,30.31,SSW,202,10.0,16.0,78,0.00,,,0.00,Weather View 32 v70,2013-06-09 20:08:00,
2013-06-09 16:13:00,62.0,55.4,30.31,WNW,292,5.0,16.0,79,0.00,,,0.00,Weather View 32 v70,2013-06-09 20:13:00,
2013-06-09 16:18:00,62.0,55.4,30.31,SW,225,13.0,16.0,79,0.00,,,0.00,Weather View 32 v70,2013-06-09 20:18:00,
2013-06-09 16:23:00,61.0,54.8,30.31,South,180,12.0,17.0,80,0.00,,,0.00,Weather View 32 v70,2013-06-09 20:23:00,
2013-06-09 16:28:00,61.0,55.1,30.31,SSW,202,10.0,18.0,81,0.00,,,0.00,Weather View 32 v70,2013-06-09 20:28:00,
2013-06-09 16:33:00,61.0,55.5,30.30,SW,225,10.0,19.0,82,0.00,,,0.00,Weather View 32 v70,2013-06-09 20:33:00,
2013-06-09 16:38:00,61.0,55.5,30.29,SSW,202,10.0,19.0,82,0.00,,,0.00,Weather View 32 v70,2013-06-09 20:38:00,
2013-06-09 16:43:00,61.0,55.8,30.30,SSW,202,16.0,19.0,83,0.00,,,0.00,Weather View 32 v70,2013-06-09 20:43:00,
2013-06-09 16:48:00,61.0,55.5,30.30,SSW,202,10.0,19.0,82,0.00,,,0.00,Weather View 32 v70,2013-06-09 20:48:00,
2013-06-09 16:53:00,60.0,54.5,30.29,SSW,202,16.0,19.0,82,0.00,,,0.00,Weather View 32 v70,2013-06-09 20:53:00,
2013-06-09 17:00:00,60.0,54.5,30.29,SSW,202,9.0,19.0,82,0.00,,,0.00,Weather View 32 v70,2013-06-09 21:00:00,
2013-06-09 17:05:00,60.0,54.8,30.29,SSW,202,15.0,19.0,83,0.00,,,0.00,Weather View 32 v70,2013-06-09 21:05:00,
2013-06-09 17:14:00,60.0,54.5,30.29,SSW,202,10.0,19.0,82,0.00,,,0.00,Weather View 32 v70,2013-06-09 21:14:00,
2013-06-09 17:20:00,60.0,54.5,30.28,SW,225,15.0,19.0,82,0.00,,,0.00,Weather View 32 v70,2013-06-09 21:20:00,
2013-06-09 17:25:00,59.0,54.2,30.29,SW,225,6.0,19.0,84,0.00,,,0.00,Weather View 32 v70,2013-06-09 21:25:00,
2013-06-09 17:30:00,59.0,54.5,30.29,SSW,202,16.0,19.0,85,0.00,,,0.00,Weather View 32 v70,2013-06-09 21:30:00,
2013-06-09 17:35:00,59.0,54.2,30.28,SW,225,10.0,19.0,84,0.00,,,0.00,Weather View 32 v70,2013-06-09 21:35:00,
2013-06-09 17:40:00,60.0,54.5,30.28,SSW,202,13.0,19.0,82,0.00,,,0.00,Weather View 32 v70,2013-06-09 21:40:00,
2013-06-09 17:45:00,59.0,53.5,30.28,SSE,157,5.0,18.0,82,0.00,,,0.00,Weather View 32 v70,2013-06-09 21:45:00,
2013-06-09 17:50:00,59.0,53.5,30.28,WSW,247,7.0,18.0,82,0.00,,,0.00,Weather View 32 v70,2013-06-09 21:50:00,
2013-06-09 17:55:00,59.0,54.2,30.28,SSW,202,15.0,19.0,84,0.00,,,0.00,Weather View 32 v70,2013-06-09 21:55:00,
2013-06-09 18:00:00,59.0,54.2,30.27,SSW,202,12.0,19.0,84,0.00,,,0.00,Weather View 32 v70,2013-06-09 22:00:00,
2013-06-09 18:05:00,59.0,54.2,30.27,West,270,4.0,19.0,84,0.00,,,0.00,Weather View 32 v70,2013-06-09 22:05:00,
2013-06-09 18:10:00,59.0,54.2,30.28,SW,225,9.0,19.0,84,0.00,,,0.00,Weather View 32 v70,2013-06-09 22:10:00,
2013-06-09 18:15:00,59.0,54.5,30.28,SSW,202,10.0,19.0,85,0.00,,,0.00,Weather View 32 v70,2013-06-09 22:15:00,
2013-06-09 18:20:00,59.0,54.5,30.28,SSE,157,2.0,19.0,85,0.00,,,0.00,Weather View 32 v70,2013-06-09 22:20:00,
2013-06-09 18:25:00,59.0,54.8,30.28,WSW,247,10.0,19.0,86,0.00,,,0.00,Weather View 32 v70,2013-06-09 22:25:00,
2013-06-09 18:30:00,59.0,55.1,30.28,SSW,202,8.0,19.0,87,0.00,,,0.00,Weather View 32 v70,2013-06-09 22:30:00,
2013-06-09 18:35:00,59.0,55.1,30.28,SSW,202,7.0,19.0,87,0.00,,,0.00,Weather View 32 v70,2013-06-09 22:35:00,
2013-06-09 18:40:00,59.0,55.4,30.28,SSW,202,14.0,19.0,88,0.00,,,0.00,Weather View 32 v70,2013-06-09 22:40:00,
2013-06-09 18:45:00,59.0,55.8,30.28,SSW,202,9.0,19.0,89,0.00,,,0.00,Weather View 32 v70,2013-06-09 22:45:00,
2013-06-09 18:50:00,59.0,55.8,30.28,SW,225,12.0,19.0,89,0.00,,,0.00,Weather View 32 v70,2013-06-09 22:50:00,
2013-06-09 18:55:00,59.0,55.8,30.28,SSW,202,7.0,18.0,89,0.00,,,0.00,Weather View 32 v70,2013-06-09 22:55:00,
2013-06-09 19:00:00,58.0,54.5,30.28,SSW,202,12.0,18.0,88,0.00,,,0.00,Weather View 32 v70,2013-06-09 23:00:00,
2013-06-09 19:05:00,58.0,54.5,30.28,SSW,202,7.0,18.0,88,0.00,,,0.00,Weather View 32 v70,2013-06-09 23:05:00,
2013-06-09 19:10:00,59.0,55.8,30.28,SW,225,7.0,18.0,89,0.00,,,0.00,Weather View 32 v70,2013-06-09 23:10:00,
2013-06-09 19:15:00,58.0,54.5,30.28,SSW,202,6.0,18.0,88,0.00,,,0.00,Weather View 32 v70,2013-06-09 23:15:00,
2013-06-09 19:20:00,59.0,55.4,30.28,SW,225,11.0,18.0,88,0.00,,,0.00,Weather View 32 v70,2013-06-09 23:20:00,
2013-06-09 19:25:00,58.0,54.5,30.28,South,180,6.0,16.0,88,0.00,,,0.00,Weather View 32 v70,2013-06-09 23:25:00,
2013-06-09 19:30:00,58.0,54.8,30.28,SSW,202,9.0,15.0,89,0.00,,,0.00,Weather View 32 v70,2013-06-09 23:30:00,
2013-06-09 19:35:00,58.0,55.1,30.28,South,180,6.0,14.0,90,0.00,,,0.00,Weather View 32 v70,2013-06-09 23:35:00,
2013-06-09 19:40:00,58.0,55.1,30.27,South,180,4.0,14.0,90,0.00,,,0.00,Weather View 32 v70,2013-06-09 23:40:00,
2013-06-09 19:45:00,58.0,55.1,30.29,NE,45,6.0,12.0,90,0.00,,,0.00,Weather View 32 v70,2013-06-09 23:45:00,
2013-06-09 19:50:00,58.0,55.1,30.29,NE,45,0.0,12.0,90,0.00,,,0.00,Weather View 32 v70,2013-06-09 23:50:00,
2013-06-09 19:55:00,58.0,55.4,30.28,ESE,112,6.0,12.0,91,0.00,,,0.00,Weather View 32 v70,2013-06-09 23:55:00,
2013-06-09 20:00:00,58.0,55.4,30.28,SSE,157,4.0,12.0,91,0.00,,,0.00,Weather View 32 v70,2013-06-10 00:00:00,
2013-06-09 20:05:00,58.0,55.1,30.28,South,180,0.0,12.0,90,0.00,,,0.00,Weather View 32 v70,2013-06-10 00:05:00,
2013-06-09 20:10:00,58.0,55.1,30.28,South,180,2.0,12.0,90,0.00,,,0.00,Weather View 32 v70,2013-06-10 00:10:00,
2013-06-09 20:15:00,58.0,55.1,30.28,SSW,202,4.0,12.0,90,0.00,,,0.00,Weather View 32 v70,2013-06-10 00:15:00,
2013-06-09 20:20:00,58.0,55.4,30.28,SW,225,2.0,12.0,91,0.00,,,0.00,Weather View 32 v70,2013-06-10 00:20:00,
2013-06-09 20:25:00,58.0,55.4,30.29,SW,225,6.0,11.0,91,0.00,,,0.00,Weather View 32 v70,2013-06-10 00:25:00,
2013-06-09 20:30:00,57.0,55.0,30.29,South,180,2.0,10.0,93,0.00,,,0.00,Weather View 32 v70,2013-06-10 00:30:00,
2013-06-09 20:35:00,57.0,55.0,30.29,SSW,202,2.0,9.0,93,0.00,,,0.00,Weather View 32 v70,2013-06-10 00:35:00,
2013-06-09 20:40:00,57.0,55.0,30.29,WSW,247,7.0,9.0,93,0.00,,,0.00,Weather View 32 v70,2013-06-10 00:40:00,
2013-06-09 20:45:00,57.0,55.3,30.28,SW,225,2.0,8.0,94,0.00,,,0.00,Weather View 32 v70,2013-06-10 00:45:00,
2013-06-09 20:50:00,56.0,54.3,30.29,SSW,202,3.0,8.0,94,0.00,,,0.00,Weather View 32 v70,2013-06-10 00:50:00,
2013-06-09 20:55:00,56.0,54.3,30.28,SSW,202,3.0,8.0,94,0.00,,,0.00,Weather View 32 v70,2013-06-10 00:55:00,
2013-06-09 21:00:00,56.0,54.6,30.28,SW,225,0.0,8.0,95,0.00,,,0.00,Weather View 32 v70,2013-06-10 01:00:00,
2013-06-09 21:05:00,56.0,54.6,30.28,SSW,202,5.0,8.0,95,0.00,,,0.00,Weather View 32 v70,2013-06-10 01:05:00,
2013-06-09 21:10:00,56.0,54.6,30.28,South,180,1.0,8.0,95,0.00,,,0.00,Weather View 32 v70,2013-06-10 01:10:00,
2013-06-09 21:15:00,56.0,54.6,30.28,WSW,247,1.0,8.0,95,0.00,,,0.00,Weather View 32 v70,2013-06-10 01:15:00,
2013-06-09 21:20:00,56.0,54.6,30.28,WSW,247,3.0,8.0,95,0.00,,,0.00,Weather View 32 v70,2013-06-10 01:20:00,
2013-06-09 21:25:00,56.0,54.9,30.28,SSW,202,0.0,8.0,96,0.00,,,0.00,Weather View 32 v70,2013-06-10 01:25:00,
2013-06-09 21:30:00,56.0,54.9,30.29,West,270,2.0,8.0,96,0.00,,,0.00,Weather View 32 v70,2013-06-10 01:30:00,
2013-06-09 21:35:00,56.0,54.6,30.29,WSW,247,0.0,8.0,95,0.00,,,0.00,Weather View 32 v70,2013-06-10 01:35:00,
2013-06-09 21:40:00,56.0,54.9,30.29,SW,225,0.0,8.0,96,0.00,,,0.00,Weather View 32 v70,2013-06-10 01:40:00,
2013-06-09 21:45:00,56.0,54.9,30.30,WNW,292,2.0,8.0,96,0.00,,,0.00,Weather View 32 v70,2013-06-10 01:45:00,
2013-06-09 21:50:00,56.0,54.9,30.31,NW,315,0.0,8.0,96,0.00,,,0.00,Weather View 32 v70,2013-06-10 01:50:00,
2013-06-09 21:55:00,56.0,54.9,30.31,NW,315,0.0,6.0,96,0.00,,,0.00,Weather View 32 v70,2013-06-10 01:55:00,
2013-06-09 22:00:00,56.0,54.9,30.31,NW,315,1.0,6.0,96,0.00,,,0.00,Weather View 32 v70,2013-06-10 02:00:00,
2013-06-09 22:05:00,56.0,54.9,30.31,NW,315,1.0,5.0,96,0.00,,,0.00,Weather View 32 v70,2013-06-10 02:05:00,
2013-06-09 22:10:00,56.0,54.9,30.30,NW,315,0.0,5.0,96,0.00,,,0.00,Weather View 32 v70,2013-06-10 02:10:00,
2013-06-09 22:15:00,56.0,54.9,30.31,NW,315,0.0,5.0,96,0.00,,,0.00,Weather View 32 v70,2013-06-10 02:15:00,
2013-06-09 22:20:00,52.0,52.0,30.28,NW,315,0.0,5.0,100,0.00,,,0.00,Weather View 32 v70,2013-06-10 02:20:00,
2013-06-09 22:25:00,54.0,53.4,30.30,NW,315,0.0,5.0,98,0.00,,,0.00,Weather View 32 v70,2013-06-10 02:25:00,
2013-06-09 22:30:00,56.0,54.6,30.30,SW,225,3.0,4.0,95,0.00,,,0.00,Weather View 32 v70,2013-06-10 02:30:00,
2013-06-09 22:35:00,55.0,53.9,30.30,SW,225,0.0,4.0,96,0.00,,,0.00,Weather View 32 v70,2013-06-10 02:35:00,
2013-06-09 22:40:00,56.0,54.6,30.29,SW,225,0.0,4.0,95,0.00,,,0.00,Weather View 32 v70,2013-06-10 02:40:00,
2013-06-09 22:45:00,56.0,54.9,30.30,SW,225,0.0,3.0,96,0.00,,,0.00,Weather View 32 v70,2013-06-10 02:45:00,
2013-06-09 22:50:00,55.0,53.9,30.30,SW,225,0.0,3.0,96,0.00,,,0.00,Weather View 32 v70,2013-06-10 02:50:00,
2013-06-09 22:55:00,55.0,53.9,30.30,SW,225,0.0,3.0,96,0.00,,,0.00,Weather View 32 v70,2013-06-10 02:55:00,
2013-06-09 23:00:00,55.0,54.2,30.30,SW,225,0.0,3.0,97,0.00,,,0.00,Weather View 32 v70,2013-06-10 03:00:00,
2013-06-09 23:05:00,54.0,53.4,30.29,SW,225,0.0,3.0,98,0.00,,,0.00,Weather View 32 v70,2013-06-10 03:05:00,
2013-06-09 23:10:00,54.0,53.2,30.30,SW,225,0.0,3.0,97,0.00,,,0.00,Weather View 32 v70,2013-06-10 03:10:00,
2013-06-09 23:15:00,54.0,52.9,30.29,SW,225,0.0,3.0,96,0.00,,,0.00,Weather View 32 v70,2013-06-10 03:15:00,
2013-06-09 23:20:00,54.0,53.2,30.30,SW,225,0.0,3.0,97,0.00,,,0.00,Weather View 32 v70,2013-06-10 03:20:00,
2013-06-09 23:25:00,54.0,53.2,30.29,SW,225,0.0,3.0,97,0.00,,,0.00,Weather View 32 v70,2013-06-10 03:25:00,
2013-06-09 23:30:00,54.0,53.4,30.30,SW,225,0.0,3.0,98,0.00,,,0.00,Weather View 32 v70,2013-06-10 03:30:00,
2013-06-09 23:35:00,54.0,53.4,30.30,SW,225,0.0,2.0,98,0.00,,,0.00,Weather View 32 v70,2013-06-10 03:35:00,
2013-06-09 23:40:00,54.0,53.4,30.30,SW,225,0.0,2.0,98,0.00,,,0.00,Weather View 32 v70,2013-06-10 03:40:00,
2013-06-09 23:45:00,53.0,51.9,30.30,SW,225,0.0,0.0,96,0.00,,,0.00,Weather View 32 v70,2013-06-10 03:45:00,
2013-06-09 23:50:00,54.0,53.4,30.30,SW,225,0.0,0.0,98,0.00,,,0.00,Weather View 32 v70,2013-06-10 03:50:00,
2013-06-09 23:55:00,54.0,53.4,30.30,NE,45,3.0,4.0,98,0.00,,,0.00,Weather View 32 v70,2013-06-10 03:55:00,